When you browse on this site, cookies collect data to enhance your experience and personalize the content and advertising you see.
Visit our Privacy Policy to learn more. By continuing to use the site, you agree to this use of cookies and data.
  • In Hungary
  • List of Countries
  • For 7 days
  • Water Temperature
  • Satellite Maps
  • Weather Map
  • News
  • Weather Widgets
  • user-avatar
    Login

    Hourly Weather Kaş

    Today, 20 February, Wednesday

    Time Temperature Precipitation Wind Pressure Humidity
    00:00 +13°C° 0 mm 2 mps 762 mmHg 73%
    01:00 +13°C° 0 mm 2 mps 762 mmHg 74%
    02:00 +13°C° 0 mm 2 mps 762 mmHg 75%
    03:00 +12°C° 0 mm 2 mps 762 mmHg 76%
    04:00 +12°C° 0 mm 2 mps 762 mmHg 77%
    05:00 +12°C° 0 mm 2 mps 762 mmHg 78%
    06:00 +13°C° 0 mm 1 mps 762 mmHg 76%
    07:00 +14°C° 0 mm 1 mps 762 mmHg 75%
    08:00 +14°C° 0 mm 1 mps 762 mmHg 74%
    09:00 +15°C° 0 mm 1 mps 762 mmHg 71%
    10:00 +16°C° 0 mm 1 mps 762 mmHg 68%
    11:00 +17°C° 0 mm 2 mps 762 mmHg 66%
    12:00 +17°C° 0.1 mm 2 mps 762 mmHg 67%
    13:00 +17°C° 0.1 mm 2 mps 762 mmHg 68%
    14:00 +17°C° 0.1 mm 2 mps 762 mmHg 70%
    15:00 +17°C° 0.1 mm 2 mps 762 mmHg 72%
    16:00 +16°C° 0.1 mm 2 mps 762 mmHg 75%
    17:00 +16°C° 0.1 mm 1 mps 762 mmHg 78%
    18:00 +15°C° 0.1 mm 1 mps 762 mmHg 82%
    19:00 +14°C° 0.1 mm 1 mps 762 mmHg 85%
    20:00 +12°C° 0.1 mm 0 mps 762 mmHg 89%
    21:00 +12°C° 0 mm 0 mps 762 mmHg 89%
    22:00 +12°C° 0 mm 0 mps 762 mmHg 88%
    23:00 +12°C° 0 mm 0 mps 763 mmHg 88%

    Tomorrow, 21 February, Thursday

    Time Temperature Precipitation Wind Pressure Humidity
    00:00 +11°C° 0 mm 0 mps 763 mmHg 87%
    01:00 +12°C° 0 mm 1 mps 763 mmHg 87%
    02:00 +12°C° 0 mm 1 mps 763 mmHg 86%
    03:00 +12°C° 0 mm 1 mps 762 mmHg 85%
    04:00 +12°C° 0 mm 1 mps 762 mmHg 84%
    05:00 +12°C° 0 mm 1 mps 762 mmHg 83%
    06:00 +12°C° 0 mm 1 mps 762 mmHg 81%
    07:00 +13°C° 0 mm 1 mps 762 mmHg 78%
    08:00 +14°C° 0 mm 1 mps 762 mmHg 75%
    09:00 +15°C° 0 mm 1 mps 763 mmHg 71%
    10:00 +16°C° 0 mm 1 mps 763 mmHg 67%
    11:00 +18°C° 0 mm 1 mps 763 mmHg 62%
    12:00 +18°C° 0.4 mm 1 mps 762 mmHg 64%
    13:00 +18°C° 0.4 mm 1 mps 762 mmHg 65%
    14:00 +17°C° 0.4 mm 2 mps 762 mmHg 67%
    15:00 +16°C° 0.6 mm 2 mps 762 mmHg 70%
    16:00 +16°C° 0.6 mm 2 mps 762 mmHg 74%
    17:00 +16°C° 0.6 mm 2 mps 762 mmHg 77%
    18:00 +15°C° 0.4 mm 2 mps 762 mmHg 79%
    19:00 +14°C° 0.4 mm 1 mps 763 mmHg 81%
    20:00 +13°C° 0.4 mm 1 mps 763 mmHg 83%
    21:00 +13°C° 0.2 mm 1 mps 763 mmHg 82%
    22:00 +13°C° 0.2 mm 1 mps 763 mmHg 80%
    23:00 +13°C° 0.2 mm 1 mps 763 mmHg 79%

    Day after tomorrow, 22 February, Friday

    Time Temperature Precipitation Wind Pressure Humidity
    00:00 +13°C° 0 mm 1 mps 763 mmHg 78%
    01:00 +12°C° 0 mm 1 mps 763 mmHg 76%
    02:00 +12°C° 0 mm 1 mps 763 mmHg 75%
    03:00 +12°C° 0 mm 1 mps 762 mmHg 74%
    04:00 +12°C° 0 mm 1 mps 762 mmHg 72%
    05:00 +12°C° 0 mm 1 mps 762 mmHg 71%
    06:00 +13°C° 0 mm 2 mps 762 mmHg 70%
    07:00 +13°C° 0 mm 2 mps 762 mmHg 68%
    08:00 +14°C° 0 mm 2 mps 762 mmHg 66%
    09:00 +15°C° 0 mm 2 mps 761 mmHg 63%
    10:00 +16°C° 0 mm 2 mps 761 mmHg 59%
    11:00 +17°C° 0 mm 2 mps 761 mmHg 56%
    12:00 +17°C° 0 mm 2 mps 760 mmHg 56%
    13:00 +17°C° 0 mm 2 mps 760 mmHg 56%
    14:00 +17°C° 0 mm 2 mps 759 mmHg 56%
    15:00 +17°C° 0 mm 2 mps 759 mmHg 59%
    16:00 +16°C° 0 mm 2 mps 759 mmHg 62%
    17:00 +15°C° 0 mm 2 mps 759 mmHg 65%
    18:00 +14°C° 0 mm 2 mps 759 mmHg 68%
    19:00 +13°C° 0 mm 2 mps 759 mmHg 72%
    20:00 +12°C° 0 mm 2 mps 759 mmHg 75%
    21:00 +12°C° 0 mm 2 mps 759 mmHg 73%
    22:00 +12°C° 0 mm 2 mps 759 mmHg 71%
    23:00 +12°C° 0 mm 2 mps 759 mmHg 69%

    23 February, Saturday

    Time Temperature Precipitation Wind Pressure Humidity
    00:00 +10°C° 0 mm 2 mps 759 mmHg 69%
    01:00 +10°C° 0 mm 2 mps 759 mmHg 68%
    02:00 +10°C° 0 mm 2 mps 758 mmHg 67%
    03:00 +10°C° 0 mm 2 mps 758 mmHg 66%
    04:00 +10°C° 0 mm 2 mps 758 mmHg 65%
    05:00 +9°C° 0 mm 2 mps 758 mmHg 64%
    06:00 +11°C° 0 mm 1 mps 758 mmHg 63%
    07:00 +12°C° 0 mm 1 mps 758 mmHg 62%
    08:00 +13°C° 0 mm 1 mps 758 mmHg 61%
    09:00 +13°C° 0.3 mm 1 mps 758 mmHg 66%
    10:00 +13°C° 0.3 mm 2 mps 758 mmHg 70%
    11:00 +12°C° 0.3 mm 3 mps 757 mmHg 75%
    12:00 +12°C° 0.8 mm 3 mps 757 mmHg 77%
    13:00 +12°C° 0.8 mm 3 mps 756 mmHg 79%
    14:00 +12°C° 0.8 mm 3 mps 756 mmHg 81%
    15:00 +12°C° 1.3 mm 3 mps 756 mmHg 83%
    16:00 +11°C° 1.3 mm 4 mps 756 mmHg 85%
    17:00 +11°C° 1.3 mm 4 mps 755 mmHg 87%
    18:00 +11°C° 1.4 mm 4 mps 755 mmHg 88%
    19:00 +11°C° 1.4 mm 4 mps 756 mmHg 89%
    20:00 +11°C° 1.4 mm 4 mps 756 mmHg 90%
    21:00 +11°C° 1.7 mm 4 mps 756 mmHg 91%
    22:00 +11°C° 1.7 mm 4 mps 756 mmHg 92%
    23:00 +11°C° 1.7 mm 4 mps 756 mmHg 93%

    24 February, Sunday

    Time Temperature Precipitation Wind Pressure Humidity
    00:00 +11°C° 3.2 mm 4 mps 755 mmHg 94%
    01:00 +11°C° 3.2 mm 4 mps 755 mmHg 94%
    02:00 +11°C° 3.2 mm 4 mps 755 mmHg 95%
    03:00 +11°C° 1.5 mm 4 mps 755 mmHg 92%
    04:00 +11°C° 1.5 mm 4 mps 754 mmHg 90%
    05:00 +11°C° 1.5 mm 4 mps 754 mmHg 88%
    06:00 +11°C° 1.5 mm 4 mps 754 mmHg 87%
    07:00 +12°C° 1.5 mm 5 mps 755 mmHg 86%
    08:00 +12°C° 1.5 mm 5 mps 755 mmHg 84%
    09:00 +12°C° 2.3 mm 5 mps 755 mmHg 85%
    10:00 +11°C° 2.3 mm 6 mps 755 mmHg 86%
    11:00 +11°C° 2.3 mm 7 mps 755 mmHg 87%
    12:00 +11°C° 2.6 mm 7 mps 755 mmHg 87%
    13:00 +11°C° 2.6 mm 6 mps 754 mmHg 87%
    14:00 +11°C° 2.6 mm 6 mps 754 mmHg 88%
    15:00 +11°C° 2.8 mm 6 mps 754 mmHg 90%
    16:00 +11°C° 2.8 mm 6 mps 754 mmHg 92%
    17:00 +11°C° 2.8 mm 6 mps 754 mmHg 94%
    18:00 +11°C° 1.6 mm 6 mps 754 mmHg 93%
    19:00 +12°C° 1.6 mm 5 mps 754 mmHg 92%
    20:00 +12°C° 1.6 mm 5 mps 754 mmHg 90%
    21:00 +11°C° 2.1 mm 6 mps 754 mmHg 91%
    22:00 +11°C° 2.1 mm 7 mps 753 mmHg 91%
    23:00 +11°C° 2.1 mm 9 mps 752 mmHg 92%

    25 February, Monday

    Time Temperature Precipitation Wind Pressure Humidity
    00:00 +12°C° 0.9 mm 9 mps 752 mmHg 90%
    01:00 +12°C° 0.9 mm 10 mps 751 mmHg 88%
    02:00 +12°C° 0.9 mm 10 mps 750 mmHg 86%
    03:00 +12°C° 2.3 mm 11 mps 750 mmHg 87%
    04:00 +12°C° 2.3 mm 11 mps 749 mmHg 87%
    05:00 +12°C° 2.3 mm 12 mps 749 mmHg 88%
    06:00 +12°C° 7.3 mm 10 mps 749 mmHg 88%
    07:00 +12°C° 7.3 mm 8 mps 749 mmHg 88%
    08:00 +12°C° 7.3 mm 5 mps 749 mmHg 88%
    09:00 +13°C° 0.3 mm 5 mps 749 mmHg 84%
    10:00 +13°C° 0.3 mm 5 mps 750 mmHg 79%
    11:00 +14°C° 0.3 mm 5 mps 750 mmHg 75%
    12:00 +14°C° 1 mm 4 mps 750 mmHg 76%
    13:00 +13°C° 1 mm 4 mps 750 mmHg 78%
    14:00 +13°C° 1 mm 4 mps 750 mmHg 79%
    15:00 +13°C° 0.7 mm 3 mps 750 mmHg 79%
    16:00 +13°C° 0.7 mm 3 mps 751 mmHg 80%
    17:00 +14°C° 0.7 mm 2 mps 751 mmHg 80%
    18:00 +13°C° 0.3 mm 2 mps 751 mmHg 82%
    19:00 +12°C° 0.3 mm 2 mps 752 mmHg 84%
    20:00 +12°C° 0.3 mm 2 mps 752 mmHg 85%
    21:00 +12°C° 0.3 mm 2 mps 753 mmHg 84%
    22:00 +12°C° 0.3 mm 2 mps 753 mmHg 83%
    23:00 +11°C° 0.3 mm 3 mps 753 mmHg 82%
    Show more